Location: Borz?cin
(51.1714°N, 19.6030°E)
Time: 21:54:46
(UTC+00:00)

PSLV R/B - Pass Details

Date: 19 May 2025
Orbit: 586 x 683 km, 97.9° (Epoch: 16 June)

Event Time Altitude Azimuth Distance (km) Brightness Sun altitude
Rises 22:39:11 0° 12° (NNE) 2,852 8.5 -18.8°
Reaches altitude 10° 22:41:22 10° 11° (N) 1,937 7.3 -18.8°
Maximum altitude 22:45:32 73° 287° (WNW) 619 3.5 -18.8°
Enters shadow 22:46:55 41° 213° (SSW) 863 3.9 -18.8°
